Location: Gajan
(43.0218°N, 1.1244°E)
Time: 21:42:11
(UTC+00:00)

N. Korean satellite - Pass Details

Date: 29 September 2021
Orbit: 450 x 495 km, 97.3° (Epoch: 23 October)

Event Time Altitude Azimuth Distance (km) Brightness Sun altitude
Rises 04:47:31 0° 20° (NNE) 2,542 10.6 -12.3°
Reaches altitude 10° 04:49:40 10° 28° (NNE) 1,666 9.8 -11.9°
Maximum altitude 04:53:02 38° 98° (E) 755 8.2 -11.3°
Drops below altitude 10° 04:56:25 10° 168° (SSE) 1,674 9.4 -10.7°
Sets 04:58:35 0° 176° (S) 2,555 10.2 -10.3°
